loading
|

THOR BURNER 2 R/B, 3271

Orbit data source: Space-Track

THOR BURNER 2 R/B, 3271 is space debris in LEO originally from a launch on Thu, 23 May 1968 UTC launched from the Air Force Western Test Range (AFWTR). Debris objects in space refer to the collection of defunct objects orbiting the Earth. Examples of debris include non-operational satellites, rocket bodies, and fragments generated from explosions, collisions, or faulty payload assembly.

Loading next visibility...
Next conjunction unknown
Loading greatness...
THOR BURNER 2 R/B details
Identifier
3271, 1968-042B
Orbit
LEO
Last TLE update23 hours ago
Origin
Flag of USSAMSO (US)
ManufacturerThiokol/TE
MissionSpacecraft
Bus & MotorSTAR 37, Unknown motor
Mass154 kg wet, 154 kg dry
Launch date (UTC)
1968-05-23 (56 years ago)
Launch vehicleUnknown
Launch site
Air Force Western Test Range (AFWTR)
Object type
Payload
Rocket body
Debris
Shape & HBRSphere + Cone + 1 Truss, 1.7 m
Radar Cross Section2.181 m², Large (>1 m²)

Expand to show TLE details & history

TLE from 23 hours ago
0 THOR BURNER 2 R/B
1 03271U 68042B   24285.80999589  .00000946  00000-0  48256-3 0  9998
2 03271  98.5517 111.6195 0052119 156.8962 203.4573 14.17283713909929
Epoch: 2024-10-11T19:26Z
Definitive object data (Epoch: 2024-10-11T19:26:23.644Z)
Latitude-0.0001°
Longitude159.14614°
Altitude871.993 km
Speed7.399 km/s
True Right ascension07h 26m 28s
True Declination0° 00' 00"
Sunlit
Object was in daylight at TLE epoch
Predictive object data (real-time)
Latitude-63.68191°
Longitude177.68771°
Altitude888.056 km
Speed7.392 km/s
Apparent Right ascension03h 53m 09s
Apparent Declination-65° 27' 16"
Sunlit
Object is in daylight
Predictive observer data (real-time)
Local Sidereal Time13:17:59
Azimuth207.978° SW
Elevation-56.307°
Doppler factor1
Orbital elements
Apogee869.285 km
Perigee794.131 km
Semi-major axis7,209.845 km
Eccentricity0.0052119
Inclination98.5517°
RAAN111.6195°
Arg. of periapsis156.8962°
True anomaly203.22097°
Mean anomaly203.4573°
Eccentric anomaly203.339°
Mean motion3.54531 °/min
BSTAR0.00048256
Period101.54 mins
No data available
No data available
Other satellites on launch #42 in the year 1968 (1968-05-23 UTC)

THOR BURNER 2 R/B Visibility forecast

Observer location: 39.9160978°, -105.1181434

Span
Click to sort rows by Start time (UTC) header in descending order
Start Az.
Max El. time (UTC)
Max El. Az.
Max El.
End time (UTC)
End Az.
9 mins2024-10-13 00:50:07.521Z32.185° NE2024-10-13 00:54:07.521Z91.54° ESE32.39°2024-10-13 00:59:07.521Z166.867° S
6 mins2024-10-13 02:32:07.521Z331.686° NNW2024-10-13 02:34:07.521Z301.539° NW22.484°2024-10-13 02:38:07.521Z245.353° WSW
9 mins2024-10-13 12:14:07.521Z150.136° SSE2024-10-13 12:18:07.521Z62.2° ENE42.1°2024-10-13 12:23:07.521Z353.267° N
4 mins2024-10-13 13:57:07.521Z248.715° W2024-10-13 13:59:07.521Z273.642° WNW15.108°2024-10-13 14:01:07.521Z297.207° NW